Content
SEND FEEDBACK

Daily
Averages
Monthly
Summary
Canada

PHILIPSBURG, QUEBEC


Home > North America > Canada > Quebec
Elevation: 175 feet     Latitude: 45 02N     Longitude: 73 05W

WEATHER
 
SELECT A DAY
Number of Records: 150,086;   Date Range: 3/20/08 - 7/27/14
 
SHARE

PRINT THIS DATA

[ ← Previous Day ]
WEATHER ALMANAC - JANUARY 23, 2013
[ Next Day → ]
[ °C ]   °F
Weather ElementAverageHighLow
Temperature-8.6 °F-3.1 °F (2:55 pm)-13 °F (6:55 am)
Dewpoint-19.3 °F-13.9 °F (1:55 am)-22.4 °F (8:35 am)
Humidity60 %71 % (11:15 pm)48 % (1:15 pm)
Barometer30.19 in30.24 in (9:35 am)30.11 in (12:35 am)
Wind Speed4.1 mph8.1 mph (2:55 am)
Weather ElementAverage
Visibility10 mi
Wind DirectionSW (221.7 °)

Weather ElementTotal
Precipitation---
Heating Degree Days73.1 (Base 65)
Averaged from 64 records on January 23, 2013
WEATHER CONDITIONS BREAKOUT
WIND DIRECTION BREAKOUT
WEATHER BY HOUR - JANUARY 23, 2013
[ °C ]   °F
Local TimeTemperatureDewpointHumidityBarometerVisibilityWind DirectionWind SpeedGust SpeedPrecipitationEventsConditions
12:35 AM-4.2 °F-14.1 °F63 %30.11 in10.0 miWNW (300°)4.6 mphClear
12:55 AM-4.9 °F-14.6 °F63 %30.12 in10.0 miNW (310°)4.6 mphClear
1:15 AM-5.4 °F-14.6 °F65 %30.12 in10.0 miNW (310°)3.5 mphClear
1:35 AM-5.4 °F-14.3 °F66 %30.12 in10.0 miNW (310°)5.8 mphScattered Clouds
1:55 AM-5.4 °F-13.9 °F67 %30.13 in10.0 miWNW (300°)6.9 mphScattered Clouds
2:15 AM-6.3 °F-14.6 °F67 %30.14 in10.0 miWNW (300°)5.8 mphScattered Clouds
2:35 AM-7.6 °F-15.9 °F67 %30.14 in10.0 miWNW (300°)6.9 mphClear
2:55 AM-8.0 °F-16.2 °F67 %30.14 in10.0 miNW (310°)8.1 mphClear
3:15 AM-8.0 °F-16.6 °F66 %30.15 in10.0 miWest (280°)5.8 mphClear
3:35 AM-8.0 °F-17.1 °F64 %30.15 in10.0 miWest (280°)5.8 mphClear
3:55 AM-8.0 °F-17.3 °F64 %30.15 in10.0 miWNW (290°)6.9 mphClear
4:15 AM-9.4 °F-18.6 °F64 %30.15 in10.0 miWest (280°)6.9 mphClear
4:35 AM-10.3 °F-19.3 °F65 %30.15 in10.0 miWest (270°)4.6 mphClear
5:15 AM-10.5 °F-19.3 °F65 %30.16 in10.0 miCalmClear
5:35 AM-10.5 °F-18.8 °F67 %30.17 in10.0 miNW (310°)3.5 mphClear
6:15 AM-11.7 °F-20.4 °F66 %30.18 in10.0 miCalmClear
6:35 AM-12.6 °F-21.1 °F66 %30.19 in10.0 miWest (280°)5.8 mphClear
6:55 AM-13.0 °F-21.3 °F67 %30.20 in10.0 miWest (270°)3.5 mphClear
7:15 AM-13.0 °F-21.1 °F67 %30.20 in10.0 miWest (280°)5.8 mphClear
7:35 AM-13.0 °F-21.5 °F66 %30.20 inNW (310°)3.5 mphClear
7:55 AM-13.0 °F-21.5 °F66 %30.21 inNW (310°)5.8 mphClear
8:15 AM-13.0 °F-22.0 °F64 %30.21 inWest (280°)6.9 mphClear
8:35 AM-13.0 °F-22.4 °F63 %30.22 inWest (280°)5.8 mphClear
8:55 AM-11.6 °F-21.3 °F62 %30.22 inWNW (290°)4.6 mphClear
9:15 AM-10.5 °F-21.1 °F60 %30.23 inWest (270°)6.9 mphClear
9:35 AM-10.5 °F-21.5 °F58 %30.24 inWNW (290°)8.1 mphClear
9:55 AM-10.3 °F-21.5 °F58 %30.24 inWNW (290°)4.6 mphScattered Clouds
10:15 AM-10.5 °F-22.4 °F56 %30.24 inNW (310°)5.8 mphScattered Clouds
10:35 AM-8.5 °F-20.6 °F56 %30.24 inWest (270°)6.9 mphClear
10:55 AM-8.0 °F-20.4 °F55 %30.24 inWNW (300°)5.8 mphScattered Clouds
11:15 AM-8.0 °F-20.9 °F53 %30.23 inWest (270°)5.8 mph
11:55 AM-6.3 °F-20.4 °F51 %30.22 inNNW (330°)8.1 mphClear
12:15 PM-6.3 °F-20.7 °F50 %30.21 inWNW (290°)8.1 mphClear
12:35 PM-5.4 °F-20.2 °F49 %30.20 inNW (320°)5.8 mphClear
12:55 PM-5.4 °F-20.4 °F49 %30.19 inWest (280°)5.8 mphClear
1:15 PM-5.1 °F-20.2 °F48 %30.19 inWNW (300°)6.9 mphClear
1:35 PM-5.1 °F-20.4 °F48 %30.18 inNW (320°)4.6 mphClear
1:55 PM-3.8 °F-19.3 °F48 %30.18 inWNW (300°)6.9 mphClear
2:15 PM-3.5 °F-18.9 °F48 %30.18 inCalmClear
2:55 PM-3.1 °F-18.4 °F48 %30.18 inNNW (340°)4.6 mphClear
3:15 PM-3.6 °F-19.1 °F48 %30.18 inNorth (360°)4.6 mphClear
3:35 PM-3.1 °F-18.4 °F48 %30.18 in10.0 miNW (320°)4.6 mphClear
3:55 PM-4.4 °F-19.5 °F48 %30.18 inNW (310°)5.8 mphClear
4:35 PM-5.4 °F-19.3 °F51 %30.18 inNNW (330°)4.6 mphClear
4:55 PM-6.0 °F-19.3 °F53 %30.18 inNNW (330°)4.6 mphClear
5:15 PM-6.7 °F-19.7 °F53 %30.19 inNW (320°)4.6 mphClear
5:35 PM-7.6 °F-19.8 °F55 %30.19 inCalmClear
5:55 PM-7.8 °F-19.8 °F56 %30.19 inNW (310°)4.6 mphClear
6:15 PM-8.0 °F-19.3 °F58 %30.20 inNW (320°)3.5 mphClear
6:35 PM-8.0 °F-18.9 °F59 %30.20 inNNW (340°)4.6 mphClear
7:15 PM-8.0 °F-18.4 °F60 %30.21 inNW (320°)4.6 mphClear
7:55 PM-8.5 °F-18.8 °F61 %30.20 inCalmClear
8:15 PM-9.4 °F-19.7 °F61 %30.20 inCalmClear
8:35 PM-10.3 °F-20.4 °F61 %30.20 inCalmClear
8:55 PM-10.3 °F-20.4 °F61 %30.20 inCalmClear
9:15 PM-10.5 °F-20.4 °F62 %30.20 inCalmClear
9:35 PM-10.5 °F-20.0 °F63 %30.20 inCalmClear
9:55 PM-10.5 °F-19.7 °F64 %30.20 inCalmClear
10:15 PM-12.3 °F-20.4 °F67 %30.19 inCalmClear
10:35 PM-11.9 °F-19.8 °F68 %30.19 inCalmClear
10:55 PM-13.0 °F-20.7 °F68 %30.20 inCalmClear
11:15 PM-12.8 °F-19.8 °F71 %30.20 inCalmClear
11:35 PM-13.0 °F-20.2 °F70 %30.20 inCalmClear
11:55 PM-13.0 °F-20.0 °F71 %30.20 inCalmClear
Hourly data recorded from KFSO, located miles away from Philipsburg, Quebec







STORIES FROM OUR PARTNERS